Volver al catálogo

STARLINK-36501

ActivoComunicacionesVLEO
NORAD 67327·PAYLOAD·🇺🇸 United States

Lanzado Jan 4, 2026 desde Cape Canaveral Space Force Station

Loading…

Próximos Pases (próximas 24 horas)

TLE

ActualizadoSource: CelesTrak SupGP

Época: Sep 15, 2026, 03:17 UTC

1 67327C 26002Y   26258.13729167  .00043775  00000+0  15853-2 0  2581
2 67327  43.0022 335.0381 0001388 265.0501 187.7878 15.27561739    13

Sigue STARLINK-36501 en tiempo real con AllMySat

Download on the App Store